< < Back
Terminal Aerodrome Forecast


Current Version              Previous Versions:   1  2  3  4  5  6  7  8  9  

Terminal Aerodrome Forecast

275
FTUS42 KTAE 010500
TAFABY
TAF
KABY 010523Z 0106/0206 05005KT P6SM SCT250
     FM012000 VRB05KT P6SM VCTS SCT050CB SCT250
     FM020100 VRB03KT P6SM SCT250=

Latest METAR

920
SAUS70 KWBC 012200 RRM
MTRABY
METAR KABY 012153Z 02007KT 10SM FEW033 SCT070 29/21 A2998 RMK AO2 SLP149
T02940211


USA.gov is the U.S. government's official web portal to all federal, state and local government web resources and services.